Location: Cantaing
(50.1487°N, 3.1675°E)
Time: 09:47:35
(UTC+00:00)

NOAA 12 - Pass Details

Date: 14 January 2026
Orbit: 792 x 813 km, 98.6° (Epoch: 11 February)

Event Time Altitude Azimuth Distance (km) Brightness Sun altitude
Rises 05:04:06 0° 15° (NNE) 3,307 7.4 -24.4°
Reaches altitude 10° 05:06:26 10° 16° (NNE) 2,372 6.6 -24.1°
Maximum altitude 05:11:41 86° 104° (ESE) 802 4.0 -23.2°
Drops below altitude 10° 05:16:54 10° 195° (SSW) 2,357 6.4 -22.4°
Sets 05:19:13 0° 196° (SSW) 3,284 7.2 -22.0°
